Regional Weather Roundup
Issued by NWS

Home | Current Version | Previous Version | Graphics & Text | Print | Product List | Glossary On
Versions: 1 2 3 4 5 6 7 8 9 10 11 12 13 14 15 16 17 18 19 20 21 22 23 24 25 26 27 28 29 30 31 32 33 34 35 36 37 38 39 40 41 42 43 44 45 46 47 48 49 50
000
ASUS43 KBIS 230410
RWRND

NORTH DAKOTA REGIONAL WEATHER ROUNDUP
NATIONAL WEATHER SERVICE BISMARCK ND
1000 PM CST SAT NOV 22 2014

NOTE: "FAIR" INDICATES FEW OR NO CLOUDS BELOW 12,000 FEET WITH NO
SIGNIFICANT WEATHER AND/OR OBSTRUCTIONS TO VISIBILITY.


NDZ001>003-009>011-017-230500-
NORTHWEST NORTH DAKOTA

CITY           SKY/WX    TMP DP  RH WIND       PRES   REMARKS
WILLISTON      CLOUDY    41  27  57 W17       29.28F
MINOT          PTCLDY    39  29  67 SW12      29.27F
MINOT AFB      PTCLDY    36  30  80 SW10      29.26S
$$

NDZ018>021-031>035-040>046-230500-
SOUTHWEST NORTH DAKOTA

CITY           SKY/WX    TMP DP  RH WIND       PRES   REMARKS
BISMARCK       PTCLDY    32  30  92 W6        29.34S
DICKINSON      MOCLDY    39  34  82 W15       29.34R
GARRISON         N/A     32  30  92 SW8       29.31R
HETTINGER ARPT CLOUDY    38  34  85 SW12      29.40S
$$

NDZ004>008-012>016-024-026-027-054-230500-
NORTHEAST NORTH DAKOTA

CITY           SKY/WX    TMP DP  RH WIND       PRES   REMARKS
GRAND FORKS    CLOUDY    34  31  88 S17       29.37R
GRND FRKS AFB  CLOUDY    34  33  96 S12       29.36R
DEVILS LAKE    CLOUDY    36  25  64 S7        29.28F
$$

NDZ022-023-025-028>030-036>039-047>053-230500-
SOUTHEAST NORTH DAKOTA

CITY           SKY/WX    TMP DP  RH WIND       PRES   REMARKS
FARGO          CLOUDY    36  32  85 S12G23    29.38F FOG
JAMESTOWN      MOCLDY    30  27  88 S5        29.31F
$$



USA.gov is the U.S. government's official web portal to all federal, state and local government web resources and services.